Year,Month,Day,Hour,Minute,Value (Times are PST for temperature in C)
2010,06,30,00,00,11.80
2010,06,30,00,01,11.80
2010,06,30,00,02,11.80
2010,06,30,00,03,11.80
2010,06,30,00,04,11.80
2010,06,30,00,05,11.80
2010,06,30,00,06,11.80
2010,06,30,00,07,11.80
2010,06,30,00,08,11.70
2010,06,30,00,09,11.70
2010,06,30,00,10,11.60
2010,06,30,00,11,11.60
2010,06,30,00,12,11.60
2010,06,30,00,13,11.50
2010,06,30,00,14,11.50
2010,06,30,00,15,11.50
2010,06,30,00,16,11.40
2010,06,30,00,17,11.40
2010,06,30,00,18,11.30
2010,06,30,00,19,11.30
2010,06,30,00,20,11.30
2010,06,30,00,21,11.20
2010,06,30,00,22,11.20
2010,06,30,00,23,11.20
2010,06,30,00,24,11.20
2010,06,30,00,25,11.20
2010,06,30,00,26,11.30
2010,06,30,00,27,11.30
2010,06,30,00,28,11.40
2010,06,30,00,29,11.40
2010,06,30,00,30,11.40
2010,06,30,00,31,11.50
2010,06,30,00,32,11.60
2010,06,30,00,33,11.60
2010,06,30,00,34,11.70
2010,06,30,00,35,11.80
2010,06,30,00,36,11.80
2010,06,30,00,37,11.80
2010,06,30,00,38,11.80
2010,06,30,00,39,11.80
2010,06,30,00,40,11.80
2010,06,30,00,41,11.80
2010,06,30,00,42,11.80
2010,06,30,00,43,11.80
2010,06,30,00,44,11.80
2010,06,30,00,45,11.80
2010,06,30,00,46,11.80
2010,06,30,00,47,11.70
2010,06,30,00,48,11.70
2010,06,30,00,49,11.70
2010,06,30,00,50,11.60
2010,06,30,00,51,11.60
2010,06,30,00,52,11.60
2010,06,30,00,53,11.50
2010,06,30,00,54,11.40
2010,06,30,00,55,11.30
2010,06,30,00,56,11.20
2010,06,30,00,57,11.20
2010,06,30,00,58,11.10
2010,06,30,00,59,11.10
2010,06,30,01,00,10.90
2010,06,30,01,01,10.90
2010,06,30,01,02,10.80
2010,06,30,01,03,10.80
2010,06,30,01,04,10.70
2010,06,30,01,05,10.70
2010,06,30,01,06,10.60
2010,06,30,01,07,10.60
2010,06,30,01,08,10.60
2010,06,30,01,09,10.60
2010,06,30,01,10,10.60
2010,06,30,01,11,10.60
2010,06,30,01,12,10.70
2010,06,30,01,13,10.80
2010,06,30,01,14,10.80
2010,06,30,01,15,10.90
2010,06,30,01,16,10.90
2010,06,30,01,17,11.00
2010,06,30,01,18,11.00
2010,06,30,01,19,11.10
2010,06,30,01,20,11.20
2010,06,30,01,21,11.30
2010,06,30,01,22,11.30
2010,06,30,01,23,11.30
2010,06,30,01,24,11.30
2010,06,30,01,25,11.30
2010,06,30,01,26,11.30
2010,06,30,01,27,11.30
2010,06,30,01,28,11.30
2010,06,30,01,29,11.30
2010,06,30,01,30,11.30
2010,06,30,01,31,11.30
2010,06,30,01,32,11.30
2010,06,30,01,33,11.30
2010,06,30,01,34,11.30
2010,06,30,01,35,11.30
2010,06,30,01,36,11.20
2010,06,30,01,37,11.20
2010,06,30,01,38,11.20
2010,06,30,01,39,11.20
2010,06,30,01,40,11.20
2010,06,30,01,41,11.20
2010,06,30,01,42,11.20
2010,06,30,01,43,11.20
2010,06,30,01,44,11.20
2010,06,30,01,45,11.20
2010,06,30,01,46,11.20
2010,06,30,01,47,11.20
2010,06,30,01,48,11.10
2010,06,30,01,49,11.10
2010,06,30,01,50,11.10
2010,06,30,01,51,11.10
2010,06,30,01,52,11.10
2010,06,30,01,53,11.00
2010,06,30,01,54,11.00
2010,06,30,01,55,11.00
2010,06,30,01,56,10.90
2010,06,30,01,57,10.90
2010,06,30,01,58,10.80
2010,06,30,01,59,10.80
2010,06,30,02,00,10.70
2010,06,30,02,01,10.70
2010,06,30,02,02,10.70
2010,06,30,02,03,10.70
2010,06,30,02,04,10.60
2010,06,30,02,05,10.60
2010,06,30,02,06,10.50
2010,06,30,02,07,10.40
2010,06,30,02,08,10.30
2010,06,30,02,09,10.30
2010,06,30,02,10,10.20
2010,06,30,02,11,10.20
2010,06,30,02,12,10.10
2010,06,30,02,13,10.00
2010,06,30,02,14,9.90
2010,06,30,02,15,9.80
2010,06,30,02,16,9.70
2010,06,30,02,17,9.60
2010,06,30,02,18,9.60
2010,06,30,02,19,9.40
2010,06,30,02,20,9.40
2010,06,30,02,21,9.30
2010,06,30,02,22,9.30
2010,06,30,02,23,9.20
2010,06,30,02,24,9.20
2010,06,30,02,25,9.10
2010,06,30,02,26,9.10
2010,06,30,02,27,9.00
2010,06,30,02,28,9.00
2010,06,30,02,29,9.10
2010,06,30,02,30,9.10
2010,06,30,02,31,9.10
2010,06,30,02,32,9.00
2010,06,30,02,33,9.00
2010,06,30,02,34,9.00
2010,06,30,02,35,9.00
2010,06,30,02,36,9.00
2010,06,30,02,37,9.00
2010,06,30,02,38,9.00
2010,06,30,02,39,9.00
2010,06,30,02,40,9.00
2010,06,30,02,41,8.90
2010,06,30,02,42,8.90
2010,06,30,02,43,8.90
2010,06,30,02,44,8.90
2010,06,30,02,45,9.00
2010,06,30,02,46,9.00
2010,06,30,02,47,9.00
2010,06,30,02,48,9.10
2010,06,30,02,49,9.10
2010,06,30,02,50,9.20
2010,06,30,02,51,9.20
2010,06,30,02,52,9.30
2010,06,30,02,53,9.30
2010,06,30,02,54,9.20
2010,06,30,02,55,9.10
2010,06,30,02,56,9.00
2010,06,30,02,57,8.90
2010,06,30,02,58,8.90
2010,06,30,02,59,8.80
2010,06,30,03,00,8.70
2010,06,30,03,01,8.60
2010,06,30,03,02,8.60
2010,06,30,03,06,8.30
2010,06,30,03,07,8.30
2010,06,30,03,08,8.30
2010,06,30,03,09,8.30
2010,06,30,03,10,8.30
2010,06,30,03,11,8.30
2010,06,30,03,12,8.30
2010,06,30,03,13,8.30
2010,06,30,03,14,8.30
2010,06,30,03,15,8.30
2010,06,30,03,16,8.30
2010,06,30,03,17,8.30
2010,06,30,03,18,8.20
2010,06,30,03,19,8.20
2010,06,30,03,20,8.10
2010,06,30,03,21,8.10
2010,06,30,03,22,8.10
2010,06,30,03,23,8.10
2010,06,30,03,24,8.20
2010,06,30,03,25,8.10
2010,06,30,03,26,8.10
2010,06,30,03,27,8.10
2010,06,30,03,28,8.10
2010,06,30,03,29,8.10
2010,06,30,03,30,8.00
2010,06,30,03,31,8.00
2010,06,30,03,32,8.00
2010,06,30,03,33,8.00
2010,06,30,03,34,8.10
2010,06,30,03,35,8.10
2010,06,30,03,36,8.10
2010,06,30,03,37,8.10
2010,06,30,03,38,8.10
2010,06,30,03,39,8.10
2010,06,30,03,40,8.10
2010,06,30,03,41,8.00
2010,06,30,03,42,8.00
2010,06,30,03,43,8.00
2010,06,30,03,44,8.00
2010,06,30,03,45,8.00
2010,06,30,03,46,7.90
2010,06,30,03,47,7.90
2010,06,30,03,48,7.90
2010,06,30,03,49,7.80
2010,06,30,03,50,7.80
2010,06,30,03,51,7.70
2010,06,30,03,52,7.70
2010,06,30,03,53,7.70
2010,06,30,03,54,7.70
2010,06,30,03,55,7.70
2010,06,30,03,56,7.70
2010,06,30,03,57,7.70
2010,06,30,03,58,7.60
2010,06,30,03,59,7.60
2010,06,30,04,00,7.50
2010,06,30,04,01,7.50
2010,06,30,04,02,7.50
2010,06,30,04,03,7.50
2010,06,30,04,04,7.40
2010,06,30,04,05,7.40
2010,06,30,04,06,7.40
2010,06,30,04,07,7.40
2010,06,30,04,08,7.50
2010,06,30,04,09,7.50
2010,06,30,04,10,7.50
2010,06,30,04,11,7.60
2010,06,30,04,12,7.60
2010,06,30,04,13,7.70
2010,06,30,04,14,7.70
2010,06,30,04,15,7.70
2010,06,30,04,16,7.70
2010,06,30,04,17,7.70
2010,06,30,04,18,7.70
2010,06,30,04,19,7.60
2010,06,30,04,20,7.50
2010,06,30,04,21,7.50
2010,06,30,04,22,7.40
2010,06,30,04,23,7.40
2010,06,30,04,24,7.30
2010,06,30,04,25,7.30
2010,06,30,04,26,7.20
2010,06,30,04,27,7.20
2010,06,30,04,28,7.20
2010,06,30,04,29,7.20
2010,06,30,04,30,7.20
2010,06,30,04,31,7.30
2010,06,30,04,32,7.30
2010,06,30,04,33,7.30
2010,06,30,04,34,7.20
2010,06,30,04,35,7.20
2010,06,30,04,36,7.20
2010,06,30,04,37,7.20
2010,06,30,04,38,7.20
2010,06,30,04,39,7.20
2010,06,30,04,40,7.30
2010,06,30,04,41,7.30
2010,06,30,04,42,7.30
2010,06,30,04,43,7.30
2010,06,30,04,44,7.30
2010,06,30,04,45,7.30
2010,06,30,04,46,7.30
2010,06,30,04,47,7.30
2010,06,30,04,48,7.30
2010,06,30,04,49,7.30
2010,06,30,04,50,7.30
2010,06,30,04,51,7.40
2010,06,30,04,52,7.40
2010,06,30,04,53,7.50
2010,06,30,04,54,7.60
2010,06,30,04,55,7.60
2010,06,30,04,56,7.60
2010,06,30,04,57,7.50
2010,06,30,04,58,7.50
2010,06,30,04,59,7.50
2010,06,30,05,00,7.40
2010,06,30,05,01,7.40
2010,06,30,05,02,7.40
2010,06,30,05,03,7.30
2010,06,30,05,04,7.30
2010,06,30,05,05,7.30
2010,06,30,05,06,7.30
2010,06,30,05,07,7.30
2010,06,30,05,08,7.30
2010,06,30,05,09,7.30
2010,06,30,05,10,7.30
2010,06,30,05,11,7.30
2010,06,30,05,12,7.30
2010,06,30,05,13,7.20
2010,06,30,05,14,7.30
2010,06,30,05,15,7.30
2010,06,30,05,16,7.30
2010,06,30,05,17,7.30
2010,06,30,05,18,7.30
2010,06,30,05,19,7.30
2010,06,30,05,20,7.30
2010,06,30,05,21,7.30
2010,06,30,05,22,7.30
2010,06,30,05,23,7.20
2010,06,30,05,24,7.20
2010,06,30,05,25,7.20
2010,06,30,05,26,7.20
2010,06,30,05,27,7.20
2010,06,30,05,28,7.30
2010,06,30,05,29,7.20
2010,06,30,05,30,7.20
2010,06,30,05,31,7.20
2010,06,30,05,32,7.20
2010,06,30,05,33,7.20
2010,06,30,05,34,7.20
2010,06,30,05,35,7.20
2010,06,30,05,36,7.20
2010,06,30,05,37,7.20
2010,06,30,05,38,7.20
2010,06,30,05,39,7.20
2010,06,30,05,40,7.10
2010,06,30,05,41,7.10
2010,06,30,05,42,7.10
2010,06,30,05,43,7.10
2010,06,30,05,44,7.10
2010,06,30,05,45,7.20
2010,06,30,05,46,7.20
2010,06,30,05,47,7.20
2010,06,30,05,48,7.20
2010,06,30,05,49,7.30
2010,06,30,05,50,7.30
2010,06,30,05,51,7.50
2010,06,30,05,52,7.60
2010,06,30,05,53,7.70
2010,06,30,05,54,7.80
2010,06,30,05,55,7.80
2010,06,30,05,56,7.90
2010,06,30,05,57,7.90
2010,06,30,05,58,7.90
2010,06,30,05,59,8.00
2010,06,30,06,00,8.00
2010,06,30,06,01,8.10
2010,06,30,06,02,8.10
2010,06,30,06,03,8.20
2010,06,30,06,04,8.20
2010,06,30,06,05,8.30
2010,06,30,06,06,8.40
2010,06,30,06,07,8.50
2010,06,30,06,08,8.60
2010,06,30,06,09,8.60
2010,06,30,06,10,8.60
2010,06,30,06,11,8.60
2010,06,30,06,12,8.60
2010,06,30,06,13,8.60
2010,06,30,06,14,8.60
2010,06,30,06,15,8.60
2010,06,30,06,16,8.60
2010,06,30,06,17,8.60
2010,06,30,06,18,8.60
2010,06,30,06,19,8.60
2010,06,30,06,20,8.70
2010,06,30,06,21,8.70
2010,06,30,06,22,8.70
2010,06,30,06,23,8.70
2010,06,30,06,24,8.70
2010,06,30,06,25,8.70
2010,06,30,06,26,8.70
2010,06,30,06,27,8.70
2010,06,30,06,28,8.80
2010,06,30,06,29,8.80
2010,06,30,06,30,8.90
2010,06,30,06,31,9.00
2010,06,30,06,32,9.10
2010,06,30,06,33,9.20
2010,06,30,06,34,9.30
2010,06,30,06,35,9.30
2010,06,30,06,36,9.40
2010,06,30,06,37,9.50
2010,06,30,06,38,9.50
2010,06,30,06,39,9.60
2010,06,30,06,40,9.70
2010,06,30,06,41,9.80
2010,06,30,06,42,9.90
2010,06,30,06,43,9.90
2010,06,30,06,44,10.00
2010,06,30,06,45,10.10
2010,06,30,06,46,10.20
2010,06,30,06,47,10.30
2010,06,30,06,48,10.30
2010,06,30,06,49,10.40
2010,06,30,06,50,10.50
2010,06,30,06,51,10.60
2010,06,30,06,52,10.70
2010,06,30,06,53,10.80
2010,06,30,06,54,11.00
2010,06,30,06,55,11.20
2010,06,30,06,56,11.30
2010,06,30,06,57,11.40
2010,06,30,06,58,11.40
2010,06,30,06,59,11.50
2010,06,30,07,00,11.60
2010,06,30,07,01,11.70
2010,06,30,07,02,11.80
2010,06,30,07,03,11.90
2010,06,30,07,04,12.00
2010,06,30,07,05,12.10
2010,06,30,07,06,12.20
2010,06,30,07,07,12.30
2010,06,30,07,08,12.30
2010,06,30,07,09,12.40
2010,06,30,07,10,12.60
2010,06,30,07,11,12.60
2010,06,30,07,12,12.60
2010,06,30,07,13,12.70
2010,06,30,07,14,12.70
2010,06,30,07,15,12.70
2010,06,30,07,16,12.80
2010,06,30,07,17,12.80
2010,06,30,07,18,12.80
2010,06,30,07,19,12.80
2010,06,30,07,20,12.80
2010,06,30,07,21,12.80
2010,06,30,07,22,12.90
2010,06,30,07,23,12.90
2010,06,30,07,24,13.00
2010,06,30,07,25,13.10
2010,06,30,07,26,13.20
2010,06,30,07,27,13.30
2010,06,30,07,28,13.30
2010,06,30,07,29,13.30
2010,06,30,07,30,13.30
2010,06,30,07,31,13.40
2010,06,30,07,32,13.40
2010,06,30,07,33,13.40
2010,06,30,07,34,13.30
2010,06,30,07,35,13.20
2010,06,30,07,36,13.20
2010,06,30,07,37,13.10
2010,06,30,07,38,13.10
2010,06,30,07,39,13.20
2010,06,30,07,40,13.20
2010,06,30,07,41,13.30
2010,06,30,07,42,13.40
2010,06,30,07,43,13.50
2010,06,30,07,44,13.50
2010,06,30,07,45,13.60
2010,06,30,07,46,13.70
2010,06,30,07,47,13.70
2010,06,30,07,48,13.70
2010,06,30,07,49,13.70
2010,06,30,07,50,13.70
2010,06,30,07,51,13.70
2010,06,30,07,52,13.80
2010,06,30,07,53,13.70
2010,06,30,07,54,13.40
2010,06,30,07,55,13.30
2010,06,30,07,56,13.20
2010,06,30,07,57,13.30
2010,06,30,07,58,13.40
2010,06,30,07,59,13.50
2010,06,30,08,00,13.60
2010,06,30,08,01,13.60
2010,06,30,08,02,13.70
2010,06,30,08,03,13.80
2010,06,30,08,04,13.90
2010,06,30,08,05,13.90
2010,06,30,08,06,14.00
2010,06,30,08,07,14.20
2010,06,30,08,08,14.30
2010,06,30,08,09,14.30
2010,06,30,08,10,14.50
2010,06,30,08,11,14.50
2010,06,30,08,12,14.60
2010,06,30,08,13,14.60
2010,06,30,08,14,14.70
2010,06,30,08,15,14.70
2010,06,30,08,16,14.80
2010,06,30,08,17,14.90
2010,06,30,08,18,14.80
2010,06,30,08,19,14.80
2010,06,30,08,20,14.80
2010,06,30,08,21,14.70
2010,06,30,08,22,14.60
2010,06,30,08,23,14.60
2010,06,30,08,24,14.60
2010,06,30,08,25,14.60
2010,06,30,08,26,14.50
2010,06,30,08,27,14.40
2010,06,30,08,28,14.40
2010,06,30,08,29,14.30
2010,06,30,08,30,14.30
2010,06,30,08,31,14.30
2010,06,30,08,32,14.40
2010,06,30,08,33,14.40
2010,06,30,08,34,14.40
2010,06,30,08,35,14.50
2010,06,30,08,36,14.50
2010,06,30,08,37,14.50
2010,06,30,08,38,14.50
2010,06,30,08,39,14.50
2010,06,30,08,40,14.60
2010,06,30,08,41,14.60
2010,06,30,08,42,14.50
2010,06,30,08,43,14.40
2010,06,30,08,44,14.40
2010,06,30,08,45,14.50
2010,06,30,08,46,14.60
2010,06,30,08,47,14.70
2010,06,30,08,48,14.80
2010,06,30,08,49,14.70
2010,06,30,08,50,14.80
2010,06,30,08,51,14.80
2010,06,30,08,52,14.90
2010,06,30,08,53,15.00
2010,06,30,08,54,15.00
2010,06,30,08,55,15.00
2010,06,30,08,56,15.00
2010,06,30,08,57,15.00
2010,06,30,08,58,15.00
2010,06,30,08,59,15.00
2010,06,30,09,00,15.00
2010,06,30,09,01,15.00
2010,06,30,09,02,15.00
2010,06,30,09,03,15.10
2010,06,30,09,04,15.10
2010,06,30,09,05,15.00
2010,06,30,09,06,15.00
2010,06,30,09,07,15.00
2010,06,30,09,08,15.00
2010,06,30,09,09,15.00
2010,06,30,09,10,14.80
2010,06,30,09,11,14.70
2010,06,30,09,12,14.60
2010,06,30,09,13,14.60
2010,06,30,09,14,14.60
2010,06,30,09,15,14.60
2010,06,30,09,16,14.60
2010,06,30,09,17,14.70
2010,06,30,09,18,15.00
2010,06,30,09,19,15.00
2010,06,30,09,20,15.00
2010,06,30,09,21,15.00
2010,06,30,09,22,15.00
2010,06,30,09,23,15.00
2010,06,30,09,24,15.00
2010,06,30,09,25,15.00
2010,06,30,09,26,15.00
2010,06,30,09,27,15.10
2010,06,30,09,28,15.10
2010,06,30,09,29,15.20
2010,06,30,09,30,15.10
2010,06,30,09,31,15.10
2010,06,30,09,32,15.00
2010,06,30,09,33,15.00
2010,06,30,09,34,15.00
2010,06,30,09,35,15.00
2010,06,30,09,36,15.00
2010,06,30,09,37,15.00
2010,06,30,09,38,15.10
2010,06,30,09,39,15.20
2010,06,30,09,40,15.30
2010,06,30,09,41,15.50
2010,06,30,09,42,15.50
2010,06,30,09,43,15.50
2010,06,30,09,44,15.50
2010,06,30,09,45,15.60
2010,06,30,09,46,15.60
2010,06,30,09,47,15.60
2010,06,30,09,48,15.70
2010,06,30,09,49,15.60
2010,06,30,09,50,15.70
2010,06,30,09,51,15.80
2010,06,30,09,52,16.00
2010,06,30,09,53,16.10
2010,06,30,09,54,16.20
2010,06,30,09,55,16.10
2010,06,30,09,56,16.00
2010,06,30,09,57,16.00
2010,06,30,09,58,15.90
2010,06,30,09,59,15.80
2010,06,30,10,00,15.80
2010,06,30,10,01,15.80
2010,06,30,10,02,15.80
2010,06,30,10,03,15.80
2010,06,30,10,04,15.80
2010,06,30,10,05,16.00
2010,06,30,10,06,16.00
2010,06,30,10,07,16.00
2010,06,30,10,08,15.90
2010,06,30,10,09,15.90
2010,06,30,10,10,15.90
2010,06,30,10,11,15.90
2010,06,30,10,12,15.90
2010,06,30,10,13,15.70
2010,06,30,10,14,15.70
2010,06,30,10,15,15.50
2010,06,30,10,16,15.40
2010,06,30,10,17,15.30
2010,06,30,10,18,15.30
2010,06,30,10,19,15.60
2010,06,30,10,20,15.70
2010,06,30,10,21,15.80
2010,06,30,10,22,15.80
2010,06,30,10,23,15.90
2010,06,30,10,24,15.90
2010,06,30,10,25,15.80
2010,06,30,10,26,15.80
2010,06,30,10,27,15.80
2010,06,30,10,28,15.90
2010,06,30,10,29,15.90
2010,06,30,10,30,16.10
2010,06,30,10,31,16.20
2010,06,30,10,32,16.30
2010,06,30,10,33,16.30
2010,06,30,10,34,16.20
2010,06,30,10,35,16.30
2010,06,30,10,36,16.40
2010,06,30,10,37,16.30
2010,06,30,10,38,16.20
2010,06,30,10,39,16.00
2010,06,30,10,40,15.80
2010,06,30,10,41,15.70
2010,06,30,10,42,15.70
2010,06,30,10,43,15.70
2010,06,30,10,44,15.70
2010,06,30,10,45,15.80
2010,06,30,10,46,15.90
2010,06,30,10,47,16.00
2010,06,30,10,48,16.10
2010,06,30,10,49,16.20
2010,06,30,10,50,16.20
2010,06,30,10,51,16.30
2010,06,30,10,52,16.30
2010,06,30,10,53,16.30
2010,06,30,10,54,16.30
2010,06,30,10,55,16.20
2010,06,30,10,56,16.30
2010,06,30,10,57,16.10
2010,06,30,10,58,16.00
2010,06,30,10,59,15.80
2010,06,30,11,00,15.70
2010,06,30,11,01,15.70
2010,06,30,11,02,15.70
2010,06,30,11,03,15.70
2010,06,30,11,04,15.80
2010,06,30,11,05,16.00
2010,06,30,11,06,16.10
2010,06,30,11,07,16.10
2010,06,30,11,08,16.10
2010,06,30,11,09,16.10
2010,06,30,11,10,16.10
2010,06,30,11,11,16.10
2010,06,30,11,12,16.20
2010,06,30,11,13,16.20
2010,06,30,11,14,16.30
2010,06,30,11,15,16.30
2010,06,30,11,16,16.30
2010,06,30,11,17,16.20
2010,06,30,11,18,16.20
2010,06,30,11,19,16.20
2010,06,30,11,20,16.30
2010,06,30,11,21,16.30
2010,06,30,11,22,16.30
2010,06,30,11,23,16.40
2010,06,30,11,24,16.40
2010,06,30,11,25,16.40
2010,06,30,11,26,16.40
2010,06,30,11,27,16.40
2010,06,30,11,28,16.30
2010,06,30,11,29,16.40
2010,06,30,11,30,16.50
2010,06,30,11,31,16.40
2010,06,30,11,32,16.20
2010,06,30,11,33,16.10
2010,06,30,11,34,16.00
2010,06,30,11,35,15.90
2010,06,30,11,36,15.90
2010,06,30,11,37,15.90
2010,06,30,11,38,15.80
2010,06,30,11,39,15.80
2010,06,30,11,40,15.80
2010,06,30,11,41,15.90
2010,06,30,11,42,16.10
2010,06,30,11,43,16.20
2010,06,30,11,44,16.20
2010,06,30,11,45,16.30
2010,06,30,11,46,16.50
2010,06,30,11,47,16.70
2010,06,30,11,48,16.80
2010,06,30,11,49,17.00
2010,06,30,11,50,16.80
2010,06,30,11,51,16.70
2010,06,30,11,52,16.60
2010,06,30,11,53,16.50
2010,06,30,11,54,16.40
2010,06,30,11,55,16.40
2010,06,30,11,56,16.30
2010,06,30,11,57,16.30
2010,06,30,11,58,16.30
2010,06,30,11,59,16.20
2010,06,30,12,00,16.10
2010,06,30,12,01,16.10
2010,06,30,12,02,16.10
2010,06,30,12,03,16.00
2010,06,30,12,04,16.00
2010,06,30,12,05,16.10
2010,06,30,12,06,16.20
2010,06,30,12,07,16.30
2010,06,30,12,08,16.30
2010,06,30,12,09,16.30
2010,06,30,12,10,16.30
2010,06,30,12,11,16.30
2010,06,30,12,12,16.30
2010,06,30,12,13,16.30
2010,06,30,12,14,16.30
2010,06,30,12,15,16.20
2010,06,30,12,16,16.20
2010,06,30,12,17,16.30
2010,06,30,12,18,16.40
2010,06,30,12,19,16.60
2010,06,30,12,20,16.70
2010,06,30,12,21,16.90
2010,06,30,12,22,16.90
2010,06,30,12,23,16.90
2010,06,30,12,24,16.90
2010,06,30,12,25,17.10
2010,06,30,12,26,17.10
2010,06,30,12,27,17.00
2010,06,30,12,28,16.80
2010,06,30,12,29,16.70
2010,06,30,12,30,16.70
2010,06,30,12,31,16.80
2010,06,30,12,32,16.90
2010,06,30,12,33,16.90
2010,06,30,12,34,16.80
2010,06,30,12,35,16.80
2010,06,30,12,36,16.80
2010,06,30,12,37,16.80
2010,06,30,12,38,16.80
2010,06,30,12,39,16.80
2010,06,30,12,40,16.90
2010,06,30,12,41,16.90
2010,06,30,12,42,17.00
2010,06,30,12,43,17.00
2010,06,30,12,44,16.80
2010,06,30,12,45,16.70
2010,06,30,12,46,16.70
2010,06,30,12,47,16.70
2010,06,30,12,48,16.60
2010,06,30,12,49,16.50
2010,06,30,12,50,16.50
2010,06,30,12,51,16.50
2010,06,30,12,52,16.50
2010,06,30,12,53,16.40
2010,06,30,12,54,16.30
2010,06,30,12,55,16.40
2010,06,30,12,56,16.40
2010,06,30,12,57,16.40
2010,06,30,12,58,16.50
2010,06,30,12,59,16.50
2010,06,30,13,00,16.50
2010,06,30,13,01,16.70
2010,06,30,13,02,16.80
2010,06,30,13,03,16.90
2010,06,30,13,04,17.00
2010,06,30,13,05,17.00
2010,06,30,13,06,16.90
2010,06,30,13,07,16.90
2010,06,30,13,08,16.80
2010,06,30,13,09,16.80
2010,06,30,13,10,16.70
2010,06,30,13,11,16.70
2010,06,30,13,12,16.80
2010,06,30,13,13,16.90
2010,06,30,13,14,16.90
2010,06,30,13,15,16.80
2010,06,30,13,16,16.80
2010,06,30,13,17,16.70
2010,06,30,13,18,16.60
2010,06,30,13,19,16.60
2010,06,30,13,20,16.60
2010,06,30,13,21,16.60
2010,06,30,13,22,16.60
2010,06,30,13,23,16.80
2010,06,30,13,24,16.90
2010,06,30,13,25,17.00
2010,06,30,13,26,16.90
2010,06,30,13,27,16.90
2010,06,30,13,28,16.80
2010,06,30,13,29,16.80
2010,06,30,13,30,16.90
2010,06,30,13,31,17.00
2010,06,30,13,32,17.00
2010,06,30,13,33,17.00
2010,06,30,13,34,17.00
2010,06,30,13,35,17.10
2010,06,30,13,36,17.00
2010,06,30,13,37,16.90
2010,06,30,13,38,17.00
2010,06,30,13,39,17.10
2010,06,30,13,40,17.10
2010,06,30,13,41,17.10
2010,06,30,13,42,17.00
2010,06,30,13,43,17.00
2010,06,30,13,44,16.90
2010,06,30,13,45,16.90
2010,06,30,13,46,16.80
2010,06,30,13,47,16.80
2010,06,30,13,48,16.70
2010,06,30,13,49,16.80
2010,06,30,13,50,16.80
2010,06,30,13,51,16.90
2010,06,30,13,52,17.00
2010,06,30,13,53,17.10
2010,06,30,13,54,17.10
2010,06,30,13,55,17.10
2010,06,30,13,56,17.10
2010,06,30,13,57,17.10
2010,06,30,13,58,17.00
2010,06,30,13,59,16.90
2010,06,30,14,00,16.90
2010,06,30,14,01,16.90
2010,06,30,14,02,16.90
2010,06,30,14,03,16.90
2010,06,30,14,04,16.80
2010,06,30,14,05,16.80
2010,06,30,14,06,16.90
2010,06,30,14,07,16.90
2010,06,30,14,08,16.80
2010,06,30,14,09,16.80
2010,06,30,14,10,16.80
2010,06,30,14,11,16.80
2010,06,30,14,12,16.60
2010,06,30,14,13,16.60
2010,06,30,14,14,16.60
2010,06,30,14,15,16.70
2010,06,30,14,16,16.90
2010,06,30,14,17,17.10
2010,06,30,14,18,17.10
2010,06,30,14,19,17.10
2010,06,30,14,20,17.00
2010,06,30,14,21,17.00
2010,06,30,14,22,17.00
2010,06,30,14,23,16.90
2010,06,30,14,24,16.80
2010,06,30,14,25,16.80
2010,06,30,14,26,16.80
2010,06,30,14,27,16.80
2010,06,30,14,28,16.80
2010,06,30,14,29,16.80
2010,06,30,14,30,16.80
2010,06,30,14,31,16.80
2010,06,30,14,32,16.80
2010,06,30,14,33,16.80
2010,06,30,14,34,16.70
2010,06,30,14,35,16.80
2010,06,30,14,36,16.80
2010,06,30,14,37,16.80
2010,06,30,14,38,16.70
2010,06,30,14,39,16.80
2010,06,30,14,40,16.90
2010,06,30,14,41,17.00
2010,06,30,14,42,17.00
2010,06,30,14,43,16.90
2010,06,30,14,44,17.00
2010,06,30,14,45,17.00
2010,06,30,14,46,17.00
2010,06,30,14,47,17.00
2010,06,30,14,48,17.00
2010,06,30,14,49,16.90
2010,06,30,14,50,16.80
2010,06,30,14,51,16.90
2010,06,30,14,52,17.00
2010,06,30,14,53,17.10
2010,06,30,14,54,17.20
2010,06,30,14,55,17.30
2010,06,30,14,56,17.30
2010,06,30,14,57,17.30
2010,06,30,14,58,17.20
2010,06,30,14,59,17.10
2010,06,30,15,00,17.10
2010,06,30,15,01,17.10
2010,06,30,15,02,17.10
2010,06,30,15,03,17.10
2010,06,30,15,04,17.10
2010,06,30,15,05,17.10
2010,06,30,15,06,17.00
2010,06,30,15,07,16.90
2010,06,30,15,08,16.90
2010,06,30,15,09,16.90
2010,06,30,15,10,16.90
2010,06,30,15,11,16.80
2010,06,30,15,12,16.80
2010,06,30,15,13,16.90
2010,06,30,15,14,17.10
2010,06,30,15,15,17.20
2010,06,30,15,16,17.20
2010,06,30,15,17,17.20
2010,06,30,15,18,17.10
2010,06,30,15,19,17.00
2010,06,30,15,20,17.00
2010,06,30,15,21,16.90
2010,06,30,15,22,16.90
2010,06,30,15,23,16.90
2010,06,30,15,24,16.80
2010,06,30,15,25,16.90
2010,06,30,15,26,16.90
2010,06,30,15,27,16.80
2010,06,30,15,28,16.90
2010,06,30,15,29,17.00
2010,06,30,15,30,17.00
2010,06,30,15,31,17.00
2010,06,30,15,32,16.90
2010,06,30,15,33,16.80
2010,06,30,15,34,16.70
2010,06,30,15,35,16.80
2010,06,30,15,36,16.80
2010,06,30,15,37,16.90
2010,06,30,15,38,16.90
2010,06,30,15,39,16.90
2010,06,30,15,40,17.00
2010,06,30,15,41,17.00
2010,06,30,15,42,17.00
2010,06,30,15,43,17.10
2010,06,30,15,44,17.10
2010,06,30,15,45,17.10
2010,06,30,15,46,17.10
2010,06,30,15,47,17.10
2010,06,30,15,48,17.20
2010,06,30,15,49,17.20
2010,06,30,15,50,17.20
2010,06,30,15,51,17.20
2010,06,30,15,52,17.20
2010,06,30,15,53,17.20
2010,06,30,15,54,17.20
2010,06,30,15,55,17.20
2010,06,30,15,56,17.30
2010,06,30,15,57,17.40
2010,06,30,15,58,17.40
2010,06,30,15,59,17.50
2010,06,30,16,00,17.40
2010,06,30,16,01,17.40
2010,06,30,16,02,17.40
2010,06,30,16,03,17.30
2010,06,30,16,04,17.40
2010,06,30,16,05,17.60
2010,06,30,16,06,17.60
2010,06,30,16,07,17.60
2010,06,30,16,08,17.60
2010,06,30,16,09,17.60
2010,06,30,16,10,17.50
2010,06,30,16,11,17.30
2010,06,30,16,12,17.30
2010,06,30,16,13,17.20
2010,06,30,16,14,17.20
2010,06,30,16,15,17.10
2010,06,30,16,16,17.20
2010,06,30,16,17,17.30
2010,06,30,16,18,17.40
2010,06,30,16,19,17.40
2010,06,30,16,20,17.40
2010,06,30,16,21,17.50
2010,06,30,16,22,17.40
2010,06,30,16,23,17.40
2010,06,30,16,24,17.30
2010,06,30,16,25,17.40
2010,06,30,16,26,17.40
2010,06,30,16,27,17.40
2010,06,30,16,28,17.30
2010,06,30,16,29,17.30
2010,06,30,16,30,17.40
2010,06,30,16,31,17.50
2010,06,30,16,32,17.50
2010,06,30,16,33,17.50
2010,06,30,16,34,17.50
2010,06,30,16,35,17.40
2010,06,30,16,36,17.40
2010,06,30,16,37,17.30
2010,06,30,16,38,17.20
2010,06,30,16,39,17.10
2010,06,30,16,40,17.10
2010,06,30,16,41,17.10
2010,06,30,16,42,17.20
2010,06,30,16,43,17.20
2010,06,30,16,44,17.30
2010,06,30,16,45,17.40
2010,06,30,16,46,17.40
2010,06,30,16,47,17.30
2010,06,30,16,48,17.30
2010,06,30,16,49,17.20
2010,06,30,16,50,17.30
2010,06,30,16,51,17.40
2010,06,30,16,52,17.50
2010,06,30,16,53,17.60
2010,06,30,16,54,17.60
2010,06,30,16,55,17.50
2010,06,30,16,56,17.40
2010,06,30,16,57,17.30
2010,06,30,16,58,17.30
2010,06,30,16,59,17.20
2010,06,30,17,00,17.20
2010,06,30,17,01,17.20
2010,06,30,17,02,17.20
2010,06,30,17,03,17.30
2010,06,30,17,04,17.30
2010,06,30,17,05,17.30
2010,06,30,17,06,17.30
2010,06,30,17,07,17.40
2010,06,30,17,08,17.40
2010,06,30,17,09,17.50
2010,06,30,17,10,17.50
2010,06,30,17,11,17.60
2010,06,30,17,12,17.60
2010,06,30,17,13,17.50
2010,06,30,17,14,17.50
2010,06,30,17,15,17.40
2010,06,30,17,16,17.40
2010,06,30,17,17,17.40
2010,06,30,17,18,17.40
2010,06,30,17,19,17.30
2010,06,30,17,20,17.20
2010,06,30,17,21,17.30
2010,06,30,17,22,17.30
2010,06,30,17,23,17.30
2010,06,30,17,24,17.30
2010,06,30,17,25,17.30
2010,06,30,17,26,17.30
2010,06,30,17,27,17.30
2010,06,30,17,28,17.20
2010,06,30,17,29,17.20
2010,06,30,17,30,17.20
2010,06,30,17,31,17.20
2010,06,30,17,32,17.30
2010,06,30,17,33,17.20
2010,06,30,17,34,17.20